Погода в Выборге

Погода в Выборге : погода сейчас, прогноз погоды и архив. Всё, что Вы хотите узнать о погоде в Выборге!

Хотите узнать прогноз погоды в Выборге? Тогда Вам сюда: Погода в Выборге

Поиск расширенной информации на нашем сайте:

Полезная информация:

Другие новости

Новости СМИ2

Главная страница сайта

Новости сайта

03.07.2017

Напоминаем, что на нашем специализированном сайте Метеоцентр.Азия вы можете получить высокодетализированные автоматические прогнозы погоды по пунктам России, СНГ и мира в авиационном формате (включающие направление и скорость ветра, видимость, явления погоды, количество и форму облачности, нижнюю и верхнюю границу облачности).

Рекомендуем:

Погода в Выборге - сегодня

Время (UTC), дата Ветер
(°,м/с) 
Видим.   Явления Облачность Т
(°С)
Тd
(°С)
f(%) Тe
(°С)
Pmin
(гПа)
dP
(гПа)
Po
(мм)
O2
(г/м3)
Тmin Tmax R s Состояние
почвы
12 15.07.19 180 (Ю) 20000 м    9/4 600 м средняя, верхняя 
[Cu med, cong|Ac trans|Ci fib]
+17.8 +10.5 62 +21  1010.6  -0.2  757  284           
15 15.07.19 230 (ЮЗ) 20000 м    6/1 600 м средняя, верхняя 
[Cu med, cong|Ac trans|Ci fib]
+18.3 +9.6 57 +19  1010.3  -0.3  757  284           
18 15.07.19 210 (ЮЗ) 20000 м    8/0 верхняя 
[Cs]
+17.4 +9.4 59 +18  1009.9  -0.4  756  285    +19.6       
21 15.07.19 140 (ЮВ) 20000 м    ясно 
+14.2 +10.8 80 +17  1009.9  756  288           
00 16.07.19 160 (Ю) 20000 м    ясно 
+12.6 +9.9 84 +15  1010.3  0.3  757  290           
03 16.07.19 080 (В) 20000 м    ясно 
+11.7 +9.3 85 +13  1009.9  -0.4  756  291  +10.4         
06 16.07.19 140 (ЮВ) 20000 м    3/0 верхняя 
[Ci fib]
+17.8 +10.8 64 +20  1009.7  -0.2  756  284  +10.4         
09 16.07.19 160 (Ю) 20000 м    9/6 600 м средняя 
[Cu med, cong|Ac trans]
+20.1 +10.1 53 +21  1010  0.3  756  282           
12 16.07.19 090 (В) 20000 м    8/6 600 м верхняя 
[Cu med, cong|Ci fib]
+22.2 +9.9 46 +23  1009.4  -0.6  756  280           
15 16.07.19 080 (В) 20000 м    8/4 600 м верхняя 
[Cu med, cong|Ci fib]
+21.5 +9.4 46 +22  1009.4  756  281           
18 16.07.19 090 (В) 20000 м    8/3 600 м верхняя 
[Cu med, cong|Cs]
+19.2 +8.5 50 +20  1010  0.6  756  283    +22.9       
21 16.07.19 050 (СВ) 20000 м    6/0 верхняя 
[Cs]
+14.9 +9.1 68 +15  1010.6  0.6  757  288           
00 17.07.19 040 (СВ) 20000 м    4/0 средняя, верхняя 
[Ac trans|Ci fib]
+12.3 +7.8 74 +13  1010.2  -0.4  757  290           
03 17.07.19 040 (СВ) 20000 м    6/0 средняя, верхняя 
[Ac trans|Ci fib]
+13 +10.5 85 +15  1010.1  -0.1  756  289  +11.8         
06 17.07.19 060 (СВ) 20000 м    6/3 600 м средняя, верхняя 
[Cu med, cong|Ac trans|Ci fib]
+17.1 +12.4 74 +22  1010.3  0.2  757  285  +11.7         
09 17.07.19 060 (СВ) 20000 м    9/3 600 м средняя, верхняя 
[Cu med, cong|Ac trans|Ci fib]
+20.9 +11.1 53 +23  1010.3  757  281           
12 17.07.19 080 (В) 20000 м    9/4 600 м кучево-дожд., средняя, верхняя 
[Cb cap|Ac trans|Cs]
+21.2 +8.3 43 +21  1010.1  -0.2  756  281           
15 17.07.19 060 (СВ) 20000 м    9/3 600 м кучево-дожд., средняя, верхняя 
[Cb cap|Ac trans|Cs]
+20.3 +8.2 46 +20  1010.2  0.1  757  282           
18 17.07.19 020 (С) 20000 м  {ливн. осадки}  8/3 600 м средняя, верхняя 
[Cu med, cong|Ac trans|Ci fib]
+18.6 +7.6 49 +20  1010.1  -0.1  756  284    +22.4  0.0     
21 17.07.19 030 (СВ) 20000 м  слаб. ливневой дождь  10/6 600 м кучево-дожд., средняя 
[Cb cap|Ac As]
+15.2 +11.5 79 +19  1010.2  0.1  757  287           
00 18.07.19 030 (СВ) 20000 м  {ливн. осадки}  10/5 600 м кучево-дожд., средняя 
[Cb cap|Ac As]
+14.6 +12.8 89 +20  1009.7  -0.5  756  287           
03 18.07.19 040 (СВ) 20000 м    8/3 600 м средняя 
[Cu med, cong|Ac trans]
+15 +12.6 86 +21  1009.5  -0.2  756  286  +14.4       
06 18.07.19 050 (СВ) 20000 м    8/3 600 м средняя, верхняя 
[Cu med, cong|Ac trans|Ci fib]
+17.9 +13.3 74 +24  1009.3  -0.2  756  283  +14.4       
09 18.07.19 050 (СВ) 20000 м    8/8 1000 м кучево-дожд., верхняя 
[Cb cap|Ci fib]
+20.6 +13.9 65 +27  1008.8  -0.5  755  280           
12 18.07.19 060 (СВ) 20000 м    9/6 1000 м кучево-дожд., средняя, верхняя 
[Cb cap|Ac trans|Ci fib]
+20.4 +12.8 62 +25  1008.5  -0.3  755  281           
Время (UTC), дата Ветер
(°,м/с) 
Видим.   Явления Облачность Т
(°С)
Тd
(°С)
f(%) Тe
(°С)
Pmin
(гПа)
dP
(гПа)
Po
(мм)
O2
(г/м3)
Тmin Tmax R s Состояние
почвы

Для получения пояснительной информации подведите курсор к названию столбца.

ПОГОДА в Выборге - архив

Всё, что Вы хотите узнать о погоде в Выборге - удобно и подробно!

Выберите нужную дату (начиная с 1 января 2018* года) и нажмите кнопку "Найти".
Будут отображены архивные сводки погоды по пункту Выборг, начиная с указанной даты.


Отображать данные в формате CSV (для использования в таблицах Excel)


Внимание! Наш архив погоды предназначен исключительно для личного некоммерческого использования в познавательных целях. Если Вам необходимы официальные справки о состоянии погоды (для производственных, юридических, коммерческих и т.п. целей), обращайтесь в органы Росгидромета.

*Примечание: данная дата относится к архиву по метеостанциям СССР (Россия, СНГ, Балтия).
Архив по метеостанциям Зарубежной Европы и Азии (кроме Китая) хранится 10 дней, по другим регионам земного шара (Китай, Африка, Америка, Австралия, Океания) - 1 день.

Выборг - район местоположения метеостанции


Название, широта, долгота, высота метеостанции:
Выборг 60.7°ш. 28.7°д. 13 м над ур. моря [Российская Федерация]

Дополнительная информация

В oтличие oт бoльшинства пoгoдных сайтoв мы публикуем пoдрoбную метеoинфoрмацию в детальнoм прoфессиoнальнoм фoрмате.

Характеристики температуры и влажнoсти вoздуха измеряются на высoте 2 м в тени вдали oт зданий и деревьев.
Скoрoсть ветра измеряется на высoте 10 м (на урoвне рoста челoвека скoрoсть ветра ниже в 1.5-2 раза). Если метеoстанция нахoдится в гoрoде или в лесу, тo скoрoсть ветра занижена на 2-4 м/с пo сравнению с oткрытым местoм. Скoрoсть ветра над акватoриями крупных рек и oзёр, а также на вершинах хoлмoв на 2-5 м/с выше, чем в oбычных услoвиях.
Атмoсфернoе давление в разных тoчках местнoсти мoжет значительнo oтличаться oт давления на метеoстанции, в зависимoсти oт услoвий рельефа (при пoдъёме на 10 м давление пoнижается примернo на 1 мм рт.ст.).